Location: *
(44.1392°N, 4.8079°E)
Time: 22:10:44
(UTC+00:00)

Cosmos 405 Rocket - Pass Details

Date: 21 June 2021
Orbit: 489 x 552 km, 81.3° (Epoch: 02 August)

Event Time Altitude Azimuth Distance (km) Brightness Sun altitude
Exits shadow 00:10:49 51° 87° (E) 625 3.1 -22.1°
Drops below altitude 10° 00:14:16 10° 20° (NNE) 1,690 6.4 -22.0°
Sets 00:16:25 0° 16° (NNE) 2,580 7.7 -22.0°
